Location: Bailen
(14.1842°N, 120.7958°E)
Time: 12:46:41
(UTC+00:00)

Lacrosse 4 Rocket - Pass Details

Date: 22 April 2026
Orbit: 506 x 567 km, 68.0° (Epoch: 12 May)

Event Time Altitude Azimuth Distance (km) Brightness Sun altitude
Exits shadow 19:39:48 - 138° (SE) 1,901 4.3 -28.4°
Reaches altitude 10° 19:40:56 10° 123° (ESE) 1,714 4.2 -28.1°
Maximum altitude 19:42:02 11° 106° (ESE) 1,651 4.3 -27.9°
Drops below altitude 10° 19:43:09 10° 89° (E) 1,719 4.7 -27.6°
Sets 19:46:48 0° 53° (NE) 2,616 6.0 -26.8°
